SCP
3 3 3 4 4 4 4 4 4 5 6 6 6 6 6 5 5 5 5 5 5 5 5 4 4 4 4 3 3 3 3 3 3 3 3 3 3 3 3 3 2 2 2
3 3 4 5 5 5 5 6 6 7 6 6 5 5 5 5 5 5 5 5 5 5 5 5 5 5 5 4 4 3 3 3 3 3 3 3 4 4 4 3 3 3 2
3 3 4 5 7 7 8 9 10 9 8 5 3 3 3 4 4 4 4 4 5 5 6 6 6 6 6 5 5 4 4 3 3 3 3 4 4 4 4 4 4 3 3
3 4 4 5 6 8 10 11 12 11 8 4 2 2 2 2 2 2 2 3 3 4 5 6 6 6 6 6 6 5 5 4 4 4 4 4 4 4 4 4 4 4 4
4 4 4 5 5 7 10 12 12 9 6 3 2 2 2 1 1 1 1 1 2 3 3 4 5 5 5 5 5 5 5 5 5 4 4 4 4 5 5 5 4 5 5
3 4 4 4 4 6 9 10 9 6 4 3 2 2 2 2 1 1 1 1 1 2 2 2 3 3 3 3 3 3 4 4 5 5 5 5 5 5 5 5 5 5 5
3 3 3 3 3 4 6 6 6 4 4 3 3 2 2 2 2 1 1 1 1 1 1 1 1 2 2 2 2 2 2 3 3 4 5 5 5 6 6 6 6 6 6
3 3 3 3 3 3 4 4 4 4 4 4 4 3 3 2 2 1 0 1 1 1 1 1 1 1 1 1 1 2 2 3 3 3 4 4 4 5 5 6 6 6 6
3 3 3 3 3 3 3 3 4 5 5 4 4 3 3 3 2 1 1 1 2 2 2 2 1 1 1 1 2 2 3 3 4 3 3 3 2 2 3 4 5 6 5
3 3 3 3 4 4 4 4 4 4 4 3 3 4 4 3 2 1 1 2 2 2 3 3 2 1 1 1 1 2 3 4 4 4 3 3 2 2 2 2 4 5 5
3 4 4 4 4 4 4 4 4 4 3 3 3 4 4 4 3 1 1 2 2 3 3 3 3 2 1 0 1 2 2 3 4 5 5 4 3 2 2 2 3 4 4
3 4 4 4 4 4 5 4 3 3 2 2 3 4 4 4 3 2 1 1 2 3 3 3 3 2 1 0 1 1 2 3 4 5 5 4 3 3 2 2 3 4 4
3 4 4 4 5 6 5 4 3 3 3 2 2 3 4 4 4 3 1 0 1 2 2 2 1 1 1 1 1 2 3 4 5 5 5 4 3 3 3 3 4 4 4
5 5 4 5 7 7 5 4 4 4 3 3 2 2 3 3 4 3 2 1 1 1 2 2 1 1 1 2 2 3 4 5 5 5 4 4 4 4 3 3 3 4 4
7 6 6 6 7 6 4 3 3 4 3 3 2 2 2 2 2 2 1 1 1 1 2 2 2 3 3 4 4 5 5 5 5 4 4 4 5 5 4 3 3 3 3
8 7 6 5 5 4 3 2 3 3 2 1 1 2 1 1 1 0 0 1 1 1 2 3 3 4 5 5 5 5 4 4 4 4 4 4 4 4 3 3 3 3 2
6 5 4 4 3 2 2 2 2 2 1 1 1 1 1 0 0 0 0 0 0 1 2 3 4 5 6 6 6 4 3 3 3 3 3 3 3 2 2 2 2 2 2
3 3 2 2 2 1 2 2 2 2 2 1 1 0 0 0 0 0 0 0 1 1 2 4 5 6 6 6 5 4 3 3 3 2 1 1 1 1 1 1 2 2 2
2 2 1 1 1 1 1 2 2 2 2 2 1 1 0 0 0 0 0 1 1 2 3 5 5 5 5 4 3 3 3 3 3 2 1 1 1 1 1 1 1 1 1
2 2 1 1 1 1 1 1 2 2 2 2 2 1 1 1 1 1 0 1 2 3 4 4 3 3 2 2 2 3 3 3 3 2 1 1 1 1 1 1 1 1 1
2 2 1 1 1 1 1 1 1 2 2 2 2 2 1 1 1 1 1 1 2 3 3 2 1 1 1 1 1 2 2 2 3 2 2 1 1 1 1 1 1 1 1
3 2 2 2 1 1 1 1 1 1 2 2 2 2 1 1 2 1 1 1 1 2 1 1 0 0 0 0 1 1 1 2 2 2 2 1 1 1 1 1 1 1 1
3 3 2 2 1 1 1 1 1 1 1 1 2 2 2 2 2 1 1 1 1 0 0 0 0 0 0 0 0 1 1 1 2 2 1 1 1 1 1 1 1 1 1
4 3 2 1 1 1 1 1 1 1 1 1 1 2 2 2 2 1 1 0 0 0 0 0 0 0 0 0 0 0 0 1 1 1 1 1 1 1 1 1 1 1 1
4 3 2 1 1 1 0 0 1 1 1 1 2 2 3 2 1 1 0 0 0 0 0 0 0 0 0 0 0 0 0 0 0 0 1 1 1 1 1 1 1 1 1
5 4 2 1 1 0 0 0 1 1 1 2 2 3 4 3 1 0 0 0 0 0 0 0 0 0 0 0 0 0 0 0 0 0 1 1 2 2 2 1 1 1 0
Wind_Speed
2 2 1 1 1 0 0 1 1 1 2 1 1 1 2 2 2 2 2 2 3 2 2 2 3 3 3 3 3 3 3 4 5 5 3 2 2 5 3 4 5 5 4
2 2 2 2 1 0 0 0 1 1 1 1 1 1 1 1 2 2 3 3 3 3 3 3 3 3 3 4 3 4 3 4 5 6 5 4 4 4 4 5 5 5 5
3 3 2 2 1 1 1 1 0 0 1 1 1 1 2 2 2 2 3 3 3 4 4 4 4 4 4 4 4 4 4 4 4 5 6 4 4 4 5 6 6 5 7
3 3 2 2 1 1 1 1 1 1 0 0 1 1 1 1 2 3 3 3 3 3 3 4 4 4 5 5 5 4 5 5 4 5 6 5 4 4 4 5 5 4 6
2 2 2 1 1 1 1 1 1 1 1 1 1 2 2 2 2 3 4 3 3 3 3 3 3 3 4 4 5 4 4 5 5 5 5 5 5 4 5 5 6 5 5
1 1 1 1 1 1 1 1 1 1 1 1 2 2 2 2 4 4 5 4 3 3 3 3 3 3 3 4 4 5 5 6 6 6 6 6 6 6 5 6 6 6 6
2 1 1 1 0 0 1 1 1 1 1 1 2 2 2 2 3 3 4 4 3 3 3 4 4 2 2 3 4 6 6 7 8 8 8 8 7 6 7 7 6 7 7
2 1 1 1 0 0 0 0 1 1 1 1 2 2 2 2 2 2 4 4 3 3 3 3 4 4 3 4 5 5 5 5 6 7 8 8 8 7 7 8 7 7 7
2 1 0 0 0 0 0 1 1 1 1 1 1 1 2 1 1 2 5 4 3 3 3 3 4 4 4 5 6 6 6 6 5 6 6 7 7 7 7 7 7 7 7
1 1 1 1 0 1 1 1 1 1 1 1 1 1 2 2 1 2 5 4 3 3 2 2 1 2 4 4 5 6 7 6 6 5 5 7 8 7 8 7 7 7 6
1 1 1 1 1 1 0 0 1 1 1 1 1 1 1 2 1 1 3 4 4 4 3 3 1 1 3 5 6 6 6 8 7 6 5 5 4 4 5 5 6 6 7
2 2 1 1 1 0 0 1 1 1 1 1 1 1 1 0 1 1 0 3 6 4 4 4 3 2 4 5 5 5 7 8 6 5 5 4 4 4 4 4 4 5 6
2 2 2 1 1 1 1 1 1 2 2 1 2 1 1 1 1 1 1 2 4 4 3 4 4 4 5 4 4 6 6 5 4 4 4 4 4 4 4 4 4 5 6
3 2 2 2 1 1 1 1 1 2 2 2 2 2 2 2 2 2 1 1 3 3 3 3 5 6 5 4 4 4 3 3 4 4 4 4 4 3 3 3 4 4 4
3 2 2 2 1 1 1 1 1 2 2 3 3 3 3 3 4 6 6 5 5 4 5 4 3 3 3 3 3 3 3 3 3 3 4 4 4 4 4 3 4 4 4
2 2 1 1 1 1 1 0 2 1 1 0 3 4 3 3 3 4 5 5 6 7 6 4 4 4 4 4 4 4 4 3 3 4 4 4 4 4 4 3 4 4 4
2 1 1 1 1 2 1 1 1 0 1 2 2 2 2 2 3 4 5 6 6 6 5 4 4 4 5 5 5 5 5 4 4 4 4 4 4 4 3 3 4 4 4
2 2 2 1 1 2 2 2 2 2 1 1 2 3 3 3 4 5 5 5 4 3 4 4 4 4 4 5 5 5 5 5 4 4 4 4 4 4 4 4 3 5 4
2 1 1 1 2 2 2 2 2 2 2 2 1 1 2 3 5 5 5 4 4 4 4 4 4 4 4 4 5 5 5 5 5 5 4 4 4 5 5 4 4 4 5
2 2 2 2 2 2 2 2 2 2 2 2 2 2 1 3 3 2 3 4 4 4 4 5 4 4 4 4 4 5 5 5 5 5 4 4 4 4 5 5 5 4 3
2 2 3 3 2 1 2 2 2 2 2 2 2 2 3 4 3 4 4 3 4 4 4 5 5 5 4 4 4 5 6 6 5 5 5 5 4 4 4 4 4 4 3
2 2 2 2 1 1 2 2 2 3 3 3 3 0 2 4 3 3 3 3 3 3 4 4 4 4 4 4 5 5 6 6 6 6 5 5 5 5 4 4 4 3 3
2 2 2 2 2 2 3 2 2 3 3 3 3 2 2 3 3 3 3 3 3 4 3 3 4 4 5 4 4 5 5 6 6 6 6 5 5 4 4 4 5 4 4
2 2 2 2 2 2 2 2 2 3 3 3 3 3 2 3 3 3 3 3 3 4 4 4 4 5 7 6 5 4 5 6 7 6 6 6 6 5 5 4 5 5 4
3 3 3 3 3 2 2 3 3 3 3 3 3 2 2 2 3 3 3 3 4 4 4 4 4 4 6 7 7 6 7 7 6 7 6 6 6 6 6 5 5 5 5
3 3 3 2 2 2 3 3 3 3 3 3 3 2 2 2 3 3 3 3 4 3 4 3 4 5 6 5 6 6 5 6 6 6 7 6 5 5 5 4 6 5 6
Wind_Direction
138 138 136 141 145 140 350 341 340 345 349 339 332 318 311 318 311 297 296 282 272 275 276 274 276 290 295 294 286 281 278 279 281 289 291 307 296 288 291 279 265 255 229
139 140 143 143 149 158 86 324 352 5 359 5 352 327 300 300 295 288 291 298 292 287 288 292 291 285 281 283 287 282 282 280 275 285 291 288 280 277 278 276 274 266 268
148 155 150 153 160 192 251 263 298 322 352 4 6 345 335 322 298 286 284 286 285 285 286 286 290 291 284 283 277 280 280 273 277 279 280 288 279 284 282 270 273 277 274
156 162 160 167 182 204 209 227 240 247 260 296 308 315 325 326 319 303 295 286 283 282 282 282 287 287 285 284 276 274 277 280 273 271 278 281 278 281 279 278 272 257 267
157 152 154 162 176 203 209 222 234 247 244 264 281 290 299 287 315 309 296 288 287 287 285 284 287 292 301 291 294 296 287 278 277 274 276 279 280 286 280 282 284 283 268
138 126 132 156 187 194 212 216 213 242 289 284 282 293 299 324 20 350 309 302 295 294 297 296 284 266 276 258 273 286 288 279 283 284 278 280 283 282 287 285 286 283 278
151 146 159 184 181 206 237 193 200 218 245 271 288 295 308 356 19 354 324 306 302 303 299 299 302 327 307 291 262 251 256 257 265 276 282 285 286 285 286 277 276 282 285
152 143 157 174 163 154 243 252 224 229 249 273 300 311 312 355 25 340 311 287 289 291 295 298 300 310 328 316 296 290 278 264 254 253 270 281 287 294 289 280 280 272 266
129 128 132 152 147 175 238 262 267 260 265 274 289 304 305 337 351 310 297 289 280 290 295 306 306 308 356 327 295 294 292 286 258 250 264 276 288 289 289 285 276 271 270
135 139 133 158 194 242 269 272 278 266 267 274 299 303 310 320 342 304 295 286 298 300 292 287 13 332 348 319 291 292 291 294 300 288 258 255 259 254 245 261 276 278 279
145 146 151 167 214 218 213 280 277 277 296 306 309 308 319 327 345 337 318 307 312 305 305 303 14 78 309 299 288 289 296 298 291 284 276 268 266 267 254 248 258 272 279
158 164 178 207 226 149 177 242 262 278 255 269 278 288 302 319 357 45 257 289 305 302 306 318 358 355 295 285 281 289 291 286 280 284 284 286 287 287 282 274 266 267 275
171 172 183 207 215 201 228 242 243 249 268 289 295 305 327 343 58 153 206 255 276 289 316 340 319 289 274 260 246 261 270 277 292 293 295 296 297 301 295 281 268 260 261
177 179 181 193 200 177 252 261 286 300 304 307 312 318 325 330 341 347 318 270 241 259 287 276 244 248 257 283 276 256 268 301 300 297 301 303 305 301 294 295 288 279 279
179 184 191 193 174 198 250 324 307 348 345 313 318 318 321 329 360 354 330 325 325 337 316 287 287 294 297 306 308 312 309 304 297 303 301 305 310 312 310 307 298 292 288
190 195 209 205 175 222 209 148 38 2 86 311 311 309 342 354 332 328 326 322 317 311 297 291 302 306 307 312 314 312 307 308 307 303 304 307 308 306 305 304 300 298 301
202 197 232 215 205 228 237 247 249 154 178 208 232 254 271 294 299 297 298 295 283 275 276 296 305 306 308 309 311 314 317 319 311 301 304 305 304 304 304 305 306 302 296
216 169 216 228 237 244 252 260 266 278 277 265 202 206 217 245 266 271 275 277 267 251 283 301 301 303 307 309 313 315 314 311 307 302 299 300 301 302 303 303 307 309 304
217 199 218 253 251 253 257 262 273 287 297 304 308 157 202 233 235 246 252 279 303 305 303 305 306 307 309 311 315 313 312 308 311 304 300 299 298 300 304 309 308 307 302
203 165 217 245 243 251 268 280 291 297 301 308 311 336 323 287 295 289 272 295 302 311 316 317 317 317 316 313 309 307 308 308 304 295 301 300 296 297 298 300 304 303 304
218 176 202 242 250 263 277 286 291 290 293 294 300 359 330 296 299 306 304 304 306 312 316 317 319 318 318 317 315 313 312 311 309 304 302 298 297 292 292 291 289 292 301
235 217 225 241 259 265 275 271 272 276 277 279 288 254 232 276 295 304 310 313 313 313 318 315 314 320 324 323 320 318 314 314 315 311 307 303 297 290 287 285 285 288 287
238 236 237 243 245 235 242 257 269 275 279 280 284 289 274 294 307 311 311 316 320 321 327 323 321 327 332 325 321 315 313 318 318 316 308 301 298 297 290 284 282 281 282
231 232 237 243 246 248 254 266 273 279 279 276 279 290 296 300 301 308 313 317 321 326 330 327 328 333 337 334 329 330 341 336 322 309 302 293 289 289 290 291 288 284 277
229 229 233 235 236 243 251 261 269 270 274 278 280 284 290 292 297 305 313 318 318 320 327 328 330 335 341 343 344 346 352 338 321 314 302 286 279 280 282 283 282 286 284
233 235 241 244 242 250 256 260 271 281 283 286 286 290 300 303 303 313 319 321 319 320 322 327 337 337 335 335 346 347 340 325 314 304 294 288 284 283 287 282 277 273 273